Year,Month,Day,Hour,Minute,Value (Times are PST for temperature in C)
2015,06,16,00,00,18.30
2015,06,16,00,01,18.30
2015,06,16,00,02,18.30
2015,06,16,00,03,18.40
2015,06,16,00,04,18.40
2015,06,16,00,05,18.40
2015,06,16,00,06,18.40
2015,06,16,00,07,18.40
2015,06,16,00,08,18.30
2015,06,16,00,09,18.30
2015,06,16,00,10,18.30
2015,06,16,00,11,18.30
2015,06,16,00,12,18.20
2015,06,16,00,13,18.10
2015,06,16,00,14,18.10
2015,06,16,00,15,18.00
2015,06,16,00,16,18.00
2015,06,16,00,17,17.90
2015,06,16,00,18,17.90
2015,06,16,00,19,17.80
2015,06,16,00,20,17.80
2015,06,16,00,21,17.70
2015,06,16,00,22,17.60
2015,06,16,00,23,17.60
2015,06,16,00,24,17.50
2015,06,16,00,25,17.40
2015,06,16,00,26,17.30
2015,06,16,00,27,17.20
2015,06,16,00,28,17.20
2015,06,16,00,29,17.10
2015,06,16,00,30,17.10
2015,06,16,00,31,17.00
2015,06,16,00,32,16.90
2015,06,16,00,33,16.90
2015,06,16,00,34,16.90
2015,06,16,00,35,16.80
2015,06,16,00,36,16.80
2015,06,16,00,37,16.80
2015,06,16,00,38,16.80
2015,06,16,00,39,16.80
2015,06,16,00,40,16.80
2015,06,16,00,41,16.80
2015,06,16,00,42,16.80
2015,06,16,00,43,16.70
2015,06,16,00,44,16.70
2015,06,16,00,45,16.70
2015,06,16,00,46,16.70
2015,06,16,00,47,16.70
2015,06,16,00,48,16.70
2015,06,16,00,49,16.70
2015,06,16,00,50,16.70
2015,06,16,00,51,16.80
2015,06,16,00,52,16.80
2015,06,16,00,53,16.80
2015,06,16,00,54,16.70
2015,06,16,00,55,16.70
2015,06,16,00,56,16.60
2015,06,16,00,57,16.60
2015,06,16,00,58,16.60
2015,06,16,00,59,16.50
2015,06,16,01,00,16.40
2015,06,16,01,01,16.40
2015,06,16,01,02,16.30
2015,06,16,01,03,16.20
2015,06,16,01,04,16.10
2015,06,16,01,05,16.00
2015,06,16,01,06,16.00
2015,06,16,01,07,15.90
2015,06,16,01,08,15.80
2015,06,16,01,09,15.80
2015,06,16,01,10,15.70
2015,06,16,01,11,15.70
2015,06,16,01,12,15.60
2015,06,16,01,13,15.60
2015,06,16,01,14,15.50
2015,06,16,01,15,15.40
2015,06,16,01,16,15.40
2015,06,16,01,17,15.30
2015,06,16,01,18,15.30
2015,06,16,01,19,15.20
2015,06,16,01,20,15.10
2015,06,16,01,21,15.00
2015,06,16,01,22,15.00
2015,06,16,01,23,14.90
2015,06,16,01,24,14.80
2015,06,16,01,25,14.70
2015,06,16,01,26,14.60
2015,06,16,01,27,14.60
2015,06,16,01,28,14.50
2015,06,16,01,29,14.40
2015,06,16,01,30,14.40
2015,06,16,01,31,14.40
2015,06,16,01,32,14.30
2015,06,16,01,33,14.30
2015,06,16,01,34,14.30
2015,06,16,01,35,14.20
2015,06,16,01,36,14.20
2015,06,16,01,37,14.20
2015,06,16,01,38,14.30
2015,06,16,01,39,14.30
2015,06,16,01,40,14.30
2015,06,16,01,41,14.30
2015,06,16,01,42,14.30
2015,06,16,01,43,14.30
2015,06,16,01,44,14.30
2015,06,16,01,45,14.30
2015,06,16,01,46,14.30
2015,06,16,01,47,14.30
2015,06,16,01,48,14.30
2015,06,16,01,49,14.40
2015,06,16,01,50,14.40
2015,06,16,01,51,14.40
2015,06,16,01,52,14.40
2015,06,16,01,53,14.50
2015,06,16,01,54,14.50
2015,06,16,01,55,14.50
2015,06,16,01,56,14.60
2015,06,16,01,57,14.60
2015,06,16,01,58,14.60
2015,06,16,01,59,14.60
2015,06,16,02,00,14.70
2015,06,16,02,01,14.70
2015,06,16,02,02,14.70
2015,06,16,02,03,14.70
2015,06,16,02,04,14.70
2015,06,16,02,05,14.70
2015,06,16,02,06,14.70
2015,06,16,02,07,14.70
2015,06,16,02,08,14.70
2015,06,16,02,09,14.70
2015,06,16,02,10,14.70
2015,06,16,02,11,14.80
2015,06,16,02,12,14.80
2015,06,16,02,13,14.80
2015,06,16,02,14,14.80
2015,06,16,02,15,14.70
2015,06,16,02,16,14.70
2015,06,16,02,17,14.70
2015,06,16,02,18,14.70
2015,06,16,02,19,14.60
2015,06,16,02,20,14.60
2015,06,16,02,21,14.60
2015,06,16,02,22,14.60
2015,06,16,02,23,14.60
2015,06,16,02,24,14.60
2015,06,16,02,25,14.60
2015,06,16,02,26,14.70
2015,06,16,02,27,14.80
2015,06,16,02,28,14.80
2015,06,16,02,29,14.80
2015,06,16,02,30,14.80
2015,06,16,02,31,14.80
2015,06,16,02,32,14.80
2015,06,16,02,33,14.80
2015,06,16,02,34,14.70
2015,06,16,02,35,14.70
2015,06,16,02,36,14.60
2015,06,16,02,37,14.60
2015,06,16,02,38,14.60
2015,06,16,02,39,14.60
2015,06,16,02,40,14.50
2015,06,16,02,41,14.50
2015,06,16,02,42,14.50
2015,06,16,02,43,14.40
2015,06,16,02,44,14.50
2015,06,16,02,45,14.40
2015,06,16,02,46,14.40
2015,06,16,02,47,14.40
2015,06,16,02,48,14.40
2015,06,16,02,49,14.40
2015,06,16,02,50,14.40
2015,06,16,02,51,14.40
2015,06,16,02,52,14.40
2015,06,16,02,53,14.30
2015,06,16,02,54,14.30
2015,06,16,02,55,14.30
2015,06,16,02,56,14.30
2015,06,16,02,57,14.30
2015,06,16,02,58,14.20
2015,06,16,02,59,14.20
2015,06,16,03,00,14.20
2015,06,16,03,01,14.10
2015,06,16,03,02,14.10
2015,06,16,03,03,14.10
2015,06,16,03,04,14.00
2015,06,16,03,05,14.00
2015,06,16,03,06,13.90
2015,06,16,03,07,13.90
2015,06,16,03,08,13.80
2015,06,16,03,09,13.80
2015,06,16,03,10,13.70
2015,06,16,03,11,13.70
2015,06,16,03,12,13.60
2015,06,16,03,13,13.60
2015,06,16,03,14,13.50
2015,06,16,03,15,13.50
2015,06,16,03,16,13.40
2015,06,16,03,17,13.40
2015,06,16,03,18,13.40
2015,06,16,03,19,13.40
2015,06,16,03,20,13.30
2015,06,16,03,21,13.30
2015,06,16,03,22,13.30
2015,06,16,03,23,13.20
2015,06,16,03,24,13.20
2015,06,16,03,25,13.20
2015,06,16,03,26,13.10
2015,06,16,03,27,13.10
2015,06,16,03,28,13.10
2015,06,16,03,29,13.00
2015,06,16,03,30,13.00
2015,06,16,03,31,12.90
2015,06,16,03,32,12.90
2015,06,16,03,33,12.90
2015,06,16,03,34,12.80
2015,06,16,03,35,12.80
2015,06,16,03,36,12.80
2015,06,16,03,37,12.80
2015,06,16,03,38,12.80
2015,06,16,03,39,12.80
2015,06,16,03,40,12.80
2015,06,16,03,41,12.70
2015,06,16,03,42,12.70
2015,06,16,03,43,12.70
2015,06,16,03,44,12.70
2015,06,16,03,45,12.70
2015,06,16,03,46,12.70
2015,06,16,03,47,12.60
2015,06,16,03,48,12.60
2015,06,16,03,49,12.60
2015,06,16,03,50,12.60
2015,06,16,03,51,12.50
2015,06,16,03,52,12.50
2015,06,16,03,53,12.50
2015,06,16,03,54,12.40
2015,06,16,03,55,12.40
2015,06,16,03,56,12.40
2015,06,16,03,57,12.40
2015,06,16,03,58,12.40
2015,06,16,03,59,12.40
2015,06,16,04,00,12.40
2015,06,16,04,01,12.30
2015,06,16,04,02,12.30
2015,06,16,04,03,12.30
2015,06,16,04,04,12.30
2015,06,16,04,05,12.30
2015,06,16,04,06,12.30
2015,06,16,04,07,12.30
2015,06,16,04,08,12.30
2015,06,16,04,09,12.30
2015,06,16,04,10,12.30
2015,06,16,04,11,12.30
2015,06,16,04,12,12.30
2015,06,16,04,13,12.20
2015,06,16,04,14,12.20
2015,06,16,04,15,12.20
2015,06,16,04,16,12.30
2015,06,16,04,17,12.30
2015,06,16,04,18,12.30
2015,06,16,04,19,12.20
2015,06,16,04,20,12.20
2015,06,16,04,21,12.20
2015,06,16,04,22,12.20
2015,06,16,04,23,12.10
2015,06,16,04,24,12.10
2015,06,16,04,25,12.10
2015,06,16,04,26,12.00
2015,06,16,04,27,12.00
2015,06,16,04,28,11.90
2015,06,16,04,29,11.90
2015,06,16,04,30,11.90
2015,06,16,04,31,11.90
2015,06,16,04,32,11.90
2015,06,16,04,33,11.90
2015,06,16,04,34,11.90
2015,06,16,04,35,11.80
2015,06,16,04,36,11.80
2015,06,16,04,37,11.80
2015,06,16,04,38,11.80
2015,06,16,04,39,11.80
2015,06,16,04,40,11.80
2015,06,16,04,41,11.80
2015,06,16,04,42,11.80
2015,06,16,04,43,11.70
2015,06,16,04,44,11.70
2015,06,16,04,45,11.70
2015,06,16,04,46,11.70
2015,06,16,04,47,11.70
2015,06,16,04,48,11.60
2015,06,16,04,49,11.60
2015,06,16,04,50,11.60
2015,06,16,04,51,11.60
2015,06,16,04,52,11.60
2015,06,16,04,53,11.50
2015,06,16,04,54,11.50
2015,06,16,04,55,11.50
2015,06,16,04,56,11.50
2015,06,16,04,57,11.50
2015,06,16,04,58,11.50
2015,06,16,04,59,11.60
2015,06,16,05,00,11.60
2015,06,16,05,01,11.60
2015,06,16,05,02,11.60
2015,06,16,05,03,11.70
2015,06,16,05,04,11.70
2015,06,16,05,05,11.70
2015,06,16,05,06,11.70
2015,06,16,05,07,11.80
2015,06,16,05,08,11.80
2015,06,16,05,09,11.80
2015,06,16,05,10,11.90
2015,06,16,05,11,11.90
2015,06,16,05,12,11.90
2015,06,16,05,13,11.90
2015,06,16,05,14,11.90
2015,06,16,05,15,11.90
2015,06,16,05,16,11.90
2015,06,16,05,17,11.90
2015,06,16,05,18,11.90
2015,06,16,05,19,11.80
2015,06,16,05,20,11.80
2015,06,16,05,21,11.80
2015,06,16,05,22,11.80
2015,06,16,05,23,11.80
2015,06,16,05,24,11.80
2015,06,16,05,25,11.80
2015,06,16,05,26,11.80
2015,06,16,05,27,11.70
2015,06,16,05,28,11.70
2015,06,16,05,29,11.70
2015,06,16,05,30,11.70
2015,06,16,05,31,11.70
2015,06,16,05,32,11.70
2015,06,16,05,33,11.70
2015,06,16,05,34,11.70
2015,06,16,05,35,11.70
2015,06,16,05,36,11.70
2015,06,16,05,37,11.70
2015,06,16,05,38,11.70
2015,06,16,05,39,11.70
2015,06,16,05,40,11.80
2015,06,16,05,41,11.80
2015,06,16,05,42,11.80
2015,06,16,05,43,11.80
2015,06,16,05,44,11.80
2015,06,16,05,45,11.80
2015,06,16,05,46,11.80
2015,06,16,05,47,11.80
2015,06,16,05,48,11.80
2015,06,16,05,49,11.80
2015,06,16,05,50,11.80
2015,06,16,05,51,11.90
2015,06,16,05,52,11.90
2015,06,16,05,53,11.90
2015,06,16,05,54,11.90
2015,06,16,05,55,11.90
2015,06,16,05,56,12.00
2015,06,16,05,57,12.00
2015,06,16,05,58,12.00
2015,06,16,05,59,12.10
2015,06,16,06,00,12.10
2015,06,16,06,01,12.10
2015,06,16,06,02,12.10
2015,06,16,06,03,12.10
2015,06,16,06,04,12.10
2015,06,16,06,05,12.10
2015,06,16,06,06,12.20
2015,06,16,06,07,12.10
2015,06,16,06,08,12.20
2015,06,16,06,09,12.10
2015,06,16,06,10,12.10
2015,06,16,06,11,12.10
2015,06,16,06,12,12.20
2015,06,16,06,13,12.10
2015,06,16,06,14,12.10
2015,06,16,06,15,12.10
2015,06,16,06,16,12.10
2015,06,16,06,17,12.10
2015,06,16,06,18,12.10
2015,06,16,06,19,12.10
2015,06,16,06,20,12.10
2015,06,16,06,21,12.10
2015,06,16,06,22,12.20
2015,06,16,06,23,12.20
2015,06,16,06,24,12.20
2015,06,16,06,25,12.20
2015,06,16,06,26,12.20
2015,06,16,06,27,12.20
2015,06,16,06,28,12.20
2015,06,16,06,29,12.30
2015,06,16,06,30,12.30
2015,06,16,06,31,12.30
2015,06,16,06,32,12.30
2015,06,16,06,33,12.30
2015,06,16,06,34,12.30
2015,06,16,06,35,12.30
2015,06,16,06,36,12.30
2015,06,16,06,37,12.30
2015,06,16,06,38,12.30
2015,06,16,06,39,12.40
2015,06,16,06,40,12.40
2015,06,16,06,41,12.40
2015,06,16,06,42,12.40
2015,06,16,06,43,12.40
2015,06,16,06,44,12.50
2015,06,16,06,45,12.50
2015,06,16,06,46,12.60
2015,06,16,06,47,12.60
2015,06,16,06,48,12.60
2015,06,16,06,49,12.70
2015,06,16,06,50,12.70
2015,06,16,06,51,12.80
2015,06,16,06,52,12.80
2015,06,16,06,53,12.90
2015,06,16,06,54,12.90
2015,06,16,06,55,12.90
2015,06,16,06,56,13.00
2015,06,16,06,57,13.00
2015,06,16,06,58,13.10
2015,06,16,06,59,13.10
2015,06,16,07,00,13.20
2015,06,16,07,01,13.30
2015,06,16,07,02,13.40
2015,06,16,07,03,13.40
2015,06,16,07,04,13.50
2015,06,16,07,05,13.60
2015,06,16,07,06,13.70
2015,06,16,07,07,13.70
2015,06,16,07,08,13.80
2015,06,16,07,09,13.80
2015,06,16,07,10,13.80
2015,06,16,07,11,13.90
2015,06,16,07,12,13.90
2015,06,16,07,13,14.00
2015,06,16,07,14,14.00
2015,06,16,07,15,14.10
2015,06,16,07,16,14.10
2015,06,16,07,17,14.20
2015,06,16,07,18,14.20
2015,06,16,07,19,14.30
2015,06,16,07,20,14.40
2015,06,16,07,21,14.50
2015,06,16,07,22,14.60
2015,06,16,07,23,14.60
2015,06,16,07,24,14.60
2015,06,16,07,25,14.70
2015,06,16,07,26,14.70
2015,06,16,07,27,14.70
2015,06,16,07,28,14.70
2015,06,16,07,29,14.70
2015,06,16,07,30,14.70
2015,06,16,07,31,14.70
2015,06,16,07,32,14.70
2015,06,16,07,33,14.70
2015,06,16,07,34,14.70
2015,06,16,07,35,14.70
2015,06,16,07,36,14.70
2015,06,16,07,37,14.70
2015,06,16,07,38,14.70
2015,06,16,07,39,14.80
2015,06,16,07,40,14.80
2015,06,16,07,41,14.80
2015,06,16,07,42,14.80
2015,06,16,07,43,14.80
2015,06,16,07,44,14.90
2015,06,16,07,45,14.90
2015,06,16,07,46,14.90
2015,06,16,07,47,14.90
2015,06,16,07,48,15.00
2015,06,16,07,49,15.00
2015,06,16,07,50,15.10
2015,06,16,07,51,15.10
2015,06,16,07,52,15.10
2015,06,16,07,53,15.10
2015,06,16,07,54,15.10
2015,06,16,07,55,15.10
2015,06,16,07,56,15.10
2015,06,16,07,57,15.10
2015,06,16,07,58,15.10
2015,06,16,07,59,15.10
2015,06,16,08,00,15.20
2015,06,16,08,01,15.20
2015,06,16,08,02,15.20
2015,06,16,08,03,15.20
2015,06,16,08,04,15.20
2015,06,16,08,05,15.20
2015,06,16,08,06,15.20
2015,06,16,08,07,15.20
2015,06,16,08,08,15.20
2015,06,16,08,09,15.30
2015,06,16,08,10,15.30
2015,06,16,08,11,15.30
2015,06,16,08,12,15.30
2015,06,16,08,13,15.30
2015,06,16,08,14,15.40
2015,06,16,08,15,15.40
2015,06,16,08,16,15.40
2015,06,16,08,17,15.50
2015,06,16,08,18,15.50
2015,06,16,08,19,15.50
2015,06,16,08,20,15.50
2015,06,16,08,21,15.50
2015,06,16,08,22,15.60
2015,06,16,08,23,15.60
2015,06,16,08,24,15.60
2015,06,16,08,25,15.60
2015,06,16,08,26,15.60
2015,06,16,08,27,15.60
2015,06,16,08,28,15.50
2015,06,16,08,29,15.50
2015,06,16,08,30,15.40
2015,06,16,08,31,15.50
2015,06,16,08,32,15.50
2015,06,16,08,33,15.60
2015,06,16,08,34,15.60
2015,06,16,08,35,15.60
2015,06,16,08,36,15.70
2015,06,16,08,37,15.70
2015,06,16,08,38,15.60
2015,06,16,08,39,15.60
2015,06,16,08,40,15.60
2015,06,16,08,41,15.60
2015,06,16,08,42,15.60
2015,06,16,08,43,15.60
2015,06,16,08,44,15.70
2015,06,16,08,45,15.70
2015,06,16,08,46,15.70
2015,06,16,08,47,15.70
2015,06,16,08,48,15.70
2015,06,16,08,49,15.80
2015,06,16,08,50,15.80
2015,06,16,08,51,15.90
2015,06,16,08,52,15.90
2015,06,16,08,53,15.90
2015,06,16,08,54,15.90
2015,06,16,08,55,15.90
2015,06,16,08,56,15.90
2015,06,16,08,57,15.90
2015,06,16,08,58,16.00
2015,06,16,08,59,16.00
2015,06,16,09,00,16.10
2015,06,16,09,01,16.10
2015,06,16,09,02,16.10
2015,06,16,09,03,16.10
2015,06,16,09,04,16.10
2015,06,16,09,05,16.10
2015,06,16,09,06,16.20
2015,06,16,09,07,16.20
2015,06,16,09,08,16.20
2015,06,16,09,09,16.20
2015,06,16,09,10,16.20
2015,06,16,09,11,16.30
2015,06,16,09,12,16.30
2015,06,16,09,13,16.30
2015,06,16,09,14,16.30
2015,06,16,09,15,16.20
2015,06,16,09,16,16.10
2015,06,16,09,17,16.10
2015,06,16,09,18,16.10
2015,06,16,09,19,16.10
2015,06,16,09,20,16.10
2015,06,16,09,21,16.00
2015,06,16,09,22,16.00
2015,06,16,09,23,16.00
2015,06,16,09,24,16.00
2015,06,16,09,25,16.10
2015,06,16,09,26,16.20
2015,06,16,09,27,16.20
2015,06,16,09,28,16.20
2015,06,16,09,29,16.20
2015,06,16,09,30,16.30
2015,06,16,09,31,16.30
2015,06,16,09,32,16.30
2015,06,16,09,33,16.30
2015,06,16,09,34,16.40
2015,06,16,09,35,16.40
2015,06,16,09,36,16.50
2015,06,16,09,37,16.60
2015,06,16,09,38,16.60
2015,06,16,09,39,16.60
2015,06,16,09,40,16.60
2015,06,16,09,41,16.70
2015,06,16,09,42,16.80
2015,06,16,09,43,16.80
2015,06,16,09,44,16.90
2015,06,16,09,45,16.90
2015,06,16,09,46,17.00
2015,06,16,09,47,17.10
2015,06,16,09,48,17.10
2015,06,16,09,49,17.10
2015,06,16,09,50,17.10
2015,06,16,09,51,17.00
2015,06,16,09,52,17.00
2015,06,16,09,53,16.90
2015,06,16,09,54,16.90
2015,06,16,09,55,16.90
2015,06,16,09,56,16.80
2015,06,16,09,57,16.90
2015,06,16,09,58,16.90
2015,06,16,09,59,16.90
2015,06,16,10,00,16.90
2015,06,16,10,01,17.00
2015,06,16,10,02,17.00
2015,06,16,10,03,17.10
2015,06,16,10,04,17.10
2015,06,16,10,05,17.10
2015,06,16,10,06,17.10
2015,06,16,10,07,17.20
2015,06,16,10,08,17.20
2015,06,16,10,09,17.20
2015,06,16,10,10,17.10
2015,06,16,10,11,17.10
2015,06,16,10,12,17.10
2015,06,16,10,13,17.10
2015,06,16,10,14,17.20
2015,06,16,10,15,17.20
2015,06,16,10,16,17.20
2015,06,16,10,17,17.30
2015,06,16,10,18,17.30
2015,06,16,10,19,17.30
2015,06,16,10,20,17.30
2015,06,16,10,21,17.30
2015,06,16,10,22,17.30
2015,06,16,10,23,17.30
2015,06,16,10,24,17.30
2015,06,16,10,25,17.40
2015,06,16,10,26,17.50
2015,06,16,10,27,17.60
2015,06,16,10,28,17.70
2015,06,16,10,29,17.70
2015,06,16,10,30,17.80
2015,06,16,10,31,17.80
2015,06,16,10,32,17.70
2015,06,16,10,33,17.70
2015,06,16,10,34,17.70
2015,06,16,10,35,17.70
2015,06,16,10,36,17.70
2015,06,16,10,37,17.70
2015,06,16,10,38,17.70
2015,06,16,10,39,17.70
2015,06,16,10,40,17.70
2015,06,16,10,41,17.80
2015,06,16,10,42,17.90
2015,06,16,10,43,17.90
2015,06,16,10,44,17.90
2015,06,16,10,45,17.90
2015,06,16,10,46,18.00
2015,06,16,10,47,18.00
2015,06,16,10,48,18.00
2015,06,16,10,49,18.00
2015,06,16,10,50,18.10
2015,06,16,10,51,18.10
2015,06,16,10,52,18.20
2015,06,16,10,53,18.20
2015,06,16,10,54,18.20
2015,06,16,10,55,18.20
2015,06,16,10,56,18.20
2015,06,16,10,57,18.20
2015,06,16,10,58,18.20
2015,06,16,10,59,18.20
2015,06,16,11,00,18.20
2015,06,16,11,01,18.30
2015,06,16,11,02,18.30
2015,06,16,11,03,18.40
2015,06,16,11,04,18.40
2015,06,16,11,05,18.40
2015,06,16,11,06,18.50
2015,06,16,11,07,18.60
2015,06,16,11,08,18.70
2015,06,16,11,09,18.90
2015,06,16,11,10,19.00
2015,06,16,11,11,19.10
2015,06,16,11,12,19.10
2015,06,16,11,13,19.20
2015,06,16,11,14,19.20
2015,06,16,11,15,19.20
2015,06,16,11,16,19.30
2015,06,16,11,17,19.30
2015,06,16,11,18,19.30
2015,06,16,11,19,19.40
2015,06,16,11,20,19.50
2015,06,16,11,21,19.50
2015,06,16,11,22,19.60
2015,06,16,11,23,19.60
2015,06,16,11,24,19.60
2015,06,16,11,25,19.60
2015,06,16,11,26,19.70
2015,06,16,11,27,19.70
2015,06,16,11,28,19.60
2015,06,16,11,29,19.40
2015,06,16,11,30,19.20
2015,06,16,11,31,19.00
2015,06,16,11,32,18.90
2015,06,16,11,33,18.80
2015,06,16,11,34,18.70
2015,06,16,11,35,18.70
2015,06,16,11,36,18.70
2015,06,16,11,37,18.70
2015,06,16,11,38,18.80
2015,06,16,11,39,18.90
2015,06,16,11,40,18.80
2015,06,16,11,41,18.70
2015,06,16,11,42,18.60
2015,06,16,11,43,18.60
2015,06,16,11,44,18.40
2015,06,16,11,45,18.30
2015,06,16,11,46,18.20
2015,06,16,11,47,18.10
2015,06,16,11,48,18.10
2015,06,16,11,49,18.00
2015,06,16,11,50,18.10
2015,06,16,11,51,18.10
2015,06,16,11,52,18.10
2015,06,16,11,53,18.20
2015,06,16,11,54,18.30
2015,06,16,11,55,18.40
2015,06,16,11,56,18.50
2015,06,16,11,57,18.60
2015,06,16,11,58,18.70
2015,06,16,11,59,18.70
2015,06,16,12,00,18.60
2015,06,16,12,01,18.50
2015,06,16,12,02,18.50
2015,06,16,12,03,18.40
2015,06,16,12,04,18.40
2015,06,16,12,05,18.30
2015,06,16,12,06,18.20
2015,06,16,12,07,18.20
2015,06,16,12,08,18.10
2015,06,16,12,09,18.10
2015,06,16,12,10,18.10
2015,06,16,12,11,18.00
2015,06,16,12,12,18.00
2015,06,16,12,13,17.90
2015,06,16,12,14,18.00
2015,06,16,12,15,18.00
2015,06,16,12,16,18.10
2015,06,16,12,17,18.20
2015,06,16,12,18,18.30
2015,06,16,12,19,18.30
2015,06,16,12,20,18.30
2015,06,16,12,21,18.30
2015,06,16,12,22,18.30
2015,06,16,12,23,18.40
2015,06,16,12,24,18.50
2015,06,16,12,25,18.60
2015,06,16,12,26,18.60
2015,06,16,12,27,18.60
2015,06,16,12,28,18.60
2015,06,16,12,29,18.50
2015,06,16,12,30,18.40
2015,06,16,12,31,18.30
2015,06,16,12,32,18.40
2015,06,16,12,33,18.50
2015,06,16,12,34,18.60
2015,06,16,12,35,18.70
2015,06,16,12,36,18.70
2015,06,16,12,37,18.70
2015,06,16,12,38,18.80
2015,06,16,12,39,18.90
2015,06,16,12,40,19.00
2015,06,16,12,41,19.10
2015,06,16,12,42,19.20
2015,06,16,12,43,19.30
2015,06,16,12,44,19.50
2015,06,16,12,45,19.60
2015,06,16,12,46,19.80
2015,06,16,12,47,20.00
2015,06,16,12,48,20.20
2015,06,16,12,49,20.40
2015,06,16,12,50,20.50
2015,06,16,12,51,20.60
2015,06,16,12,52,20.80
2015,06,16,12,53,20.80
2015,06,16,12,54,20.90
2015,06,16,12,55,20.90
2015,06,16,12,56,20.90
2015,06,16,12,57,20.80
2015,06,16,12,58,20.70
2015,06,16,12,59,20.60
2015,06,16,13,00,20.60
2015,06,16,13,01,20.50
2015,06,16,13,02,20.50
2015,06,16,13,03,20.50
2015,06,16,13,04,20.60
2015,06,16,13,05,20.70
2015,06,16,13,06,20.80
2015,06,16,13,07,20.90
2015,06,16,13,08,21.10
2015,06,16,13,09,21.10
2015,06,16,13,10,21.10
2015,06,16,13,11,21.10
2015,06,16,13,12,21.00
2015,06,16,13,13,20.90
2015,06,16,13,14,20.90
2015,06,16,13,15,20.90
2015,06,16,13,16,21.00
2015,06,16,13,17,21.00
2015,06,16,13,18,21.10
2015,06,16,13,19,21.20
2015,06,16,13,20,21.20
2015,06,16,13,21,21.20
2015,06,16,13,22,21.20
2015,06,16,13,23,21.30
2015,06,16,13,24,21.40
2015,06,16,13,25,21.40
2015,06,16,13,26,21.30
2015,06,16,13,27,21.20
2015,06,16,13,28,21.10
2015,06,16,13,29,21.10
2015,06,16,13,30,21.10
2015,06,16,13,31,21.20
2015,06,16,13,32,21.40
2015,06,16,13,33,21.50
2015,06,16,13,34,21.60
2015,06,16,13,35,21.70
2015,06,16,13,36,21.70
2015,06,16,13,37,21.80
2015,06,16,13,38,21.90
2015,06,16,13,39,22.00
2015,06,16,13,40,22.10
2015,06,16,13,41,22.20
2015,06,16,13,42,22.20
2015,06,16,13,43,22.20
2015,06,16,13,44,22.20
2015,06,16,13,45,22.30
2015,06,16,13,46,22.30
2015,06,16,13,47,22.30
2015,06,16,13,48,22.30
2015,06,16,13,49,22.30
2015,06,16,13,50,22.30
2015,06,16,13,51,22.30
2015,06,16,13,52,22.20
2015,06,16,13,53,22.20
2015,06,16,13,54,22.10
2015,06,16,13,55,22.10
2015,06,16,13,56,22.10
2015,06,16,13,57,22.00
2015,06,16,13,58,22.00
2015,06,16,13,59,22.00
2015,06,16,14,00,22.00
2015,06,16,14,01,21.90
2015,06,16,14,02,21.90
2015,06,16,14,03,21.90
2015,06,16,14,04,21.90
2015,06,16,14,05,21.80
2015,06,16,14,06,21.80
2015,06,16,14,07,21.80
2015,06,16,14,08,21.80
2015,06,16,14,09,21.80
2015,06,16,14,10,21.80
2015,06,16,14,11,21.80
2015,06,16,14,12,21.80
2015,06,16,14,13,21.90
2015,06,16,14,14,22.00
2015,06,16,14,15,22.00
2015,06,16,14,16,22.00
2015,06,16,14,17,22.00
2015,06,16,14,18,21.90
2015,06,16,14,19,21.90
2015,06,16,14,20,21.90
2015,06,16,14,21,21.90
2015,06,16,14,22,22.00
2015,06,16,14,23,22.00
2015,06,16,14,24,22.10
2015,06,16,14,25,22.10
2015,06,16,14,26,22.10
2015,06,16,14,27,22.10
2015,06,16,14,28,22.00
2015,06,16,14,29,22.00
2015,06,16,14,30,22.00
2015,06,16,14,31,22.10
2015,06,16,14,32,22.20
2015,06,16,14,33,22.30
2015,06,16,14,34,22.40
2015,06,16,14,35,22.40
2015,06,16,14,36,22.30
2015,06,16,14,37,22.30
2015,06,16,14,38,22.40
2015,06,16,14,39,22.40
2015,06,16,14,40,22.40
2015,06,16,14,41,22.50
2015,06,16,14,42,22.50
2015,06,16,14,43,22.60
2015,06,16,14,44,22.50
2015,06,16,14,45,22.50
2015,06,16,14,46,22.60
2015,06,16,14,47,22.60
2015,06,16,14,48,22.50
2015,06,16,14,49,22.50
2015,06,16,14,50,22.40
2015,06,16,14,51,22.40
2015,06,16,14,52,22.40
2015,06,16,14,53,22.40
2015,06,16,14,54,22.30
2015,06,16,14,55,22.20
2015,06,16,14,56,22.30
2015,06,16,14,57,22.30
2015,06,16,14,58,22.40
2015,06,16,14,59,22.40
2015,06,16,15,00,22.30
2015,06,16,15,01,22.40
2015,06,16,15,02,22.40
2015,06,16,15,03,22.50
2015,06,16,15,04,22.50
2015,06,16,15,05,22.60
2015,06,16,15,06,22.60
2015,06,16,15,07,22.60
2015,06,16,15,08,22.70
2015,06,16,15,09,22.80
2015,06,16,15,10,22.80
2015,06,16,15,11,22.80
2015,06,16,15,12,22.80
2015,06,16,15,13,22.90
2015,06,16,15,14,22.90
2015,06,16,15,15,22.80
2015,06,16,15,16,22.90
2015,06,16,15,17,22.90
2015,06,16,15,18,22.90
2015,06,16,15,19,22.90
2015,06,16,15,20,23.10
2015,06,16,15,21,23.20
2015,06,16,15,22,23.20
2015,06,16,15,23,23.20
2015,06,16,15,24,23.20
2015,06,16,15,25,23.20
2015,06,16,15,26,23.20
2015,06,16,15,27,23.20
2015,06,16,15,28,23.20
2015,06,16,15,29,23.20
2015,06,16,15,30,23.20
2015,06,16,15,31,23.20
2015,06,16,15,32,23.30
2015,06,16,15,33,23.40
2015,06,16,15,34,23.50
2015,06,16,15,35,23.60
2015,06,16,15,36,23.60
2015,06,16,15,37,23.70
2015,06,16,15,38,23.80
2015,06,16,15,39,23.90
2015,06,16,15,40,23.90
2015,06,16,15,41,24.00
2015,06,16,15,42,24.10
2015,06,16,15,43,24.10
2015,06,16,15,44,24.10
2015,06,16,15,45,24.00
2015,06,16,15,46,23.90
2015,06,16,15,47,23.80
2015,06,16,15,48,23.70
2015,06,16,15,49,23.60
2015,06,16,15,50,23.60
2015,06,16,15,51,23.60
2015,06,16,15,52,23.50
2015,06,16,15,53,23.40
2015,06,16,15,54,23.30
2015,06,16,15,55,23.30
2015,06,16,15,56,23.30
2015,06,16,15,57,23.30
2015,06,16,15,58,23.30
2015,06,16,15,59,23.40
2015,06,16,16,00,23.40
2015,06,16,16,01,23.40
2015,06,16,16,02,23.40
2015,06,16,16,03,23.30
2015,06,16,16,04,23.30
2015,06,16,16,05,23.30
2015,06,16,16,06,23.40
2015,06,16,16,07,23.40
2015,06,16,16,08,23.50
2015,06,16,16,09,23.50
2015,06,16,16,10,23.60
2015,06,16,16,11,23.70
2015,06,16,16,12,23.70
2015,06,16,16,13,23.70
2015,06,16,16,14,23.80
2015,06,16,16,15,23.80
2015,06,16,16,16,23.80
2015,06,16,16,17,23.80
2015,06,16,16,18,23.90
2015,06,16,16,19,23.80
2015,06,16,16,20,23.80
2015,06,16,16,21,23.90
2015,06,16,16,22,23.90
2015,06,16,16,23,23.90
2015,06,16,16,24,23.90
2015,06,16,16,25,24.00
2015,06,16,16,26,24.00
2015,06,16,16,27,23.90
2015,06,16,16,28,23.90
2015,06,16,16,29,23.90
2015,06,16,16,30,23.90
2015,06,16,16,31,24.00
2015,06,16,16,32,23.90
2015,06,16,16,33,23.90
2015,06,16,16,34,23.90
2015,06,16,16,35,23.90
2015,06,16,16,36,23.90
2015,06,16,16,37,24.00
2015,06,16,16,38,24.00
2015,06,16,16,39,24.00
2015,06,16,16,40,24.00
2015,06,16,16,41,24.00
2015,06,16,16,42,23.90
2015,06,16,16,43,23.90
2015,06,16,16,44,23.90
2015,06,16,16,45,23.80
2015,06,16,16,46,23.80
2015,06,16,16,47,23.80
2015,06,16,16,48,23.80
2015,06,16,16,49,23.80
2015,06,16,16,50,23.80
2015,06,16,16,51,23.70
2015,06,16,16,52,23.70
2015,06,16,16,53,23.60
2015,06,16,16,54,23.60
2015,06,16,16,55,23.70
2015,06,16,16,56,23.70
2015,06,16,16,57,23.70
2015,06,16,16,58,23.70
2015,06,16,16,59,23.70
2015,06,16,17,00,23.60
2015,06,16,17,01,23.60
2015,06,16,17,02,23.50
2015,06,16,17,03,23.50
2015,06,16,17,04,23.50
2015,06,16,17,05,23.40
2015,06,16,17,06,23.30
2015,06,16,17,07,23.30
2015,06,16,17,08,23.30
2015,06,16,17,09,23.30
2015,06,16,17,10,23.30
2015,06,16,17,11,23.30
2015,06,16,17,12,23.20
2015,06,16,17,13,23.20
2015,06,16,17,14,23.20
2015,06,16,17,15,23.20
2015,06,16,17,16,23.30
2015,06,16,17,17,23.30
2015,06,16,17,18,23.30
2015,06,16,17,19,23.30